Waarnemingen

Advertentie
Mijn weer
Rheinstetten, Duitsland (10731): temperatuur & dauwpunt: 13.01.2018 18:00:00 - 19.01.2018 18:00:00 (CET)Rheinstetten, Duitsland (10731): temperatuur 5cm & temperatuur -5cm: 13.01.2018 18:00:00 - 19.01.2018 18:00:00 (CET)Rheinstetten, Duitsland (10731): temperatuur -20cm & temperatuur -100cm: 13.01.2018 18:00:00 - 19.01.2018 18:00:00 (CET)Rheinstetten, Duitsland (10731): windsnelheid & windstoten: 13.01.2018 18:00:00 - 19.01.2018 18:00:00 (CET)Rheinstetten, Duitsland (10731): windrichting: 13.01.2018 18:00:00 - 19.01.2018 18:00:00 (CET)Rheinstetten, Duitsland (10731): luchtdruk: 13.01.2018 18:00:00 - 19.01.2018 18:00:00 (CET)Rheinstetten, Duitsland (10731): zicht: 13.01.2018 18:00:00 - 19.01.2018 18:00:00 (CET)Rheinstetten, Duitsland (10731): Zonneschijnduur: 13.01.2018 18:00:00 - 19.01.2018 18:00:00 (CET)Rheinstetten, Duitsland (10731): neerslag: 13.01.2018 18:00:00 - 19.01.2018 18:00:00 (CET)
Datum & Tijd tt [°C] td [°C] tt 5cm [°C] tt -5cm [°C] tt -20cm [°C] tt -100cm [°C] ff [km/u] ff [kn] fx [km/u] fx [kn] dd ppp [hPa] vv [km] sd [min] rr [mm]
19.01.2018 18:00:00 3,1 2,3 2,7 3,5 4,4 5,9 11 6 21 11 ZW 1012,7 4,0 0 0,7
19.01.2018 17:00:00 2,7 1,7 2,5 3,8 4,4 5,9 12 7 22 12 Z 1012,7 35 0 0,0
19.01.2018 16:00:00 3,1 1,7 2,8 4,0 4,3 6,0 16 9 44 24 ZW 1013,0 25 0 3,2
19.01.2018 15:00:00 4,0 1,9 2,6 4,9 4,6 6,0 26 14 42 23 WZW 1012,8 1,6 1 0,2
19.01.2018 14:00:00 6,0 2,1 6,2 5,2 4,5 6,0 16 8 26 14 ZW 1012,8 63 0 0,0
19.01.2018 13:00:00 5,4 1,6 4,2 4,5 4,3 6,0 16 9 31 17 WZW 1013,7 57 0 0,1
19.01.2018 12:00:00 5,4 1,0 5,4 4,3 4,2 6,0 23 12 39 21 ZW 1013,9 70 1 0,0
19.01.2018 11:00:00 5,4 0,9 5,5 3,8 4,2 5,9 22 12 35 19 ZW 1013,8 60 3 0,0
19.01.2018 10:00:00 5,0 0,7 4,4 3,3 4,2 5,9 22 12 35 19 ZW 1013,2 69 1 0,0
19.01.2018 09:00:00 4,6 0,3 3,6 3,0 4,3 5,9 28 15 41 22 ZW 1012,4 55 0 0,0
19.01.2018 08:00:00 4,4 1,0 3,5 2,7 4,5 5,9 20 11 35 19 ZW 1011,2 70 0 0,0
19.01.2018 07:00:00 4,3 1,4 2,3 3,2 4,6 5,9 18 10 45 24 WZW 1010,1 70 0 0,1
19.01.2018 06:00:00 4,7 1,5 3,6 3,2 4,8 5,9 27 15 42 23 WZW 1009,0 70 0 0,0
19.01.2018 05:00:00 5,1 2,0 3,9 3,9 4,9 5,9 26 14 36 20 WZW 1008,2 70 0 0,0
19.01.2018 04:00:00 5,6 3,7 4,7 4,5 5,0 5,9 22 12 29 16 WZW 1007,4 70 0 0,0
19.01.2018 03:00:00 5,8 4,0 4,9 4,8 5,0 5,9 18 10 46 25 WZW 1006,9 63 0 0,7
19.01.2018 02:00:00 7,3 3,8 6,3 5,0 5,0 5,9 23 13 41 22 WZW 1005,8 46 0 0,0
19.01.2018 01:00:00 7,6 3,9 6,7 4,9 5,0 5,9 27 14 43 23 ZW 1005,5 50 0 0,0
19.01.2018 00:00:00 7,3 4,1 6,3 4,7 5,0 5,9 20 11 31 17 WZW 1005,5 55 0 0,0
18.01.2018 23:00:00 6,7 4,0 5,6 4,5 5,1 5,9 16 9 27 15 ZW 1005,5 70 0 0,0
18.01.2018 22:00:00 6,7 4,0 5,6 4,6 5,2 5,9 20 11 27 14 ZW 1006,1 69 0 0,0
18.01.2018 21:00:00 6,6 3,8 5,3 4,7 5,3 5,9 20 11 38 21 ZW 1006,0 55 0 0,0
18.01.2018 20:00:00 7,3 3,4 6,0 5,1 5,4 5,9 27 15 44 24 ZW 1006,0 47 0 0,0
18.01.2018 19:00:00 7,9 5,2 6,7 5,6 5,5 5,9 24 13 36 20 ZW 1005,3 43 0 0,0
18.01.2018 18:00:00 8,1 5,7 6,8 5,7 5,6 5,9 25 13 40 21 ZW 1004,5 62 0 0,0
18.01.2018 17:00:00 8,4 6,2 7,2 6,4 5,5 5,9 31 17 59 32 ZW 1003,8 70 0 0,4
18.01.2018 16:00:00 8,7 6,1 7,3 6,5 5,2 5,9 29 16 51 27 WZW 1003,4 34 0 0,4
18.01.2018 15:00:00 8,2 6,4 7,0 6,3 5,0 5,9 34 18 66 36 WZW 1003,2 8 0 3,3
18.01.2018 14:00:00 8,7 5,0 7,2 6,4 4,7 6,0 35 19 71 38 WZW 1001,8 70 0 0,8
18.01.2018 13:00:00 8,8 5,0 7,6 6,6 4,3 6,0 48 26 72 39 ZW 1002,4 15 27 0,0
18.01.2018 12:00:00 7,6 3,8 6,2 5,4 4,0 6,0 54 29 83 45 ZW 1002,5 28 3 0,0
18.01.2018 11:00:00 7,5 3,0 6,2 4,7 3,8 6,0 55 30 83 45 ZW 1002,5 70 1 0,0
18.01.2018 10:00:00 6,6 2,8 5,6 4,0 3,7 6,0 46 25 68 37 ZW 1003,1 55 0 0,0
18.01.2018 09:00:00 5,1 2,5 4,0 3,5 3,5 6,0 51 28 78 42 ZW 1004,1 11 0 0,4
18.01.2018 08:00:00 4,7 2,6 3,5 3,3 3,5 6,0 50 27 74 40 ZW 1004,7 9 0 1,8
18.01.2018 07:00:00 4,5 2,8 3,5 3,2 3,5 6,0 45 25 65 35 ZW 1006,0 6 0 1,2
18.01.2018 06:00:00 4,3 2,6 3,3 3,1 3,5 6,0 44 24 65 35 ZW 1007,8 13 0 1,1
18.01.2018 05:00:00 4,7 2,0 3,4 3,1 3,5 6,0 42 23 61 33 ZW 1009,7 13 0 0,2
18.01.2018 04:00:00 4,9 1,3 4,1 2,9 3,4 6,0 34 18 50 27 ZZW 1011,0 51 0 0,0
18.01.2018 03:00:00 4,5 1,2 3,3 2,7 3,3 6,0 32 18 46 25 ZZW 1012,3 37 0 0,0
18.01.2018 02:00:00 4,2 1,0 3,5 2,6 3,2 6,0 29 16 42 23 ZW 1013,2 52 0 0,0
18.01.2018 01:00:00 4,0 1,3 3,1 2,4 3,1 6,0 25 14 33 18 ZW 1013,8 43 0 1,3
18.01.2018 00:00:00 2,9 1,7 2,2 2,2 3,6 6,1 23 12 41 22 ZW 1014,5 26 0 1,5
17.01.2018 23:00:00 2,9 1,4 2,2 2,4 3,7 6,1 27 15 44 24 ZW 1014,4 12 0 1,1
17.01.2018 22:00:00 3,9 0,5 3,1 2,3 3,7 6,1 31 17 46 25 ZW 1014,0 54 0 0,0
17.01.2018 21:00:00 4,1 0,9 3,5 2,4 3,8 6,1 29 15 44 24 ZZW 1013,5 47 0 0,0
17.01.2018 20:00:00 4,4 0,0 3,4 2,4 4,0 6,1 28 15 48 26 WZW 1012,9 43 0 0,0
17.01.2018 19:00:00 4,5 0,1 3,2 2,9 4,1 6,1 27 15 59 32 WZW 1011,9 49 0 0,0
17.01.2018 18:00:00 5,0 -0,5 4,2 3,2 4,2 6,1 28 15 46 25 WZW 1010,8 50 0 0,2
17.01.2018 17:00:00 4,5 0,3 2,6 3,5 4,2 6,1 20 11 50 27 W 1010,6 17 24 0,0
17.01.2018 16:00:00 4,6 -0,1 4,4 3,8 4,2 6,1 40 21 56 30 WZW 1009,4 27 24 0,0
17.01.2018 15:00:00 4,9 -0,5 4,6 4,3 4,1 6,0 29 16 58 32 WZW 1008,8 47 20 0,0
17.01.2018 14:00:00 4,8 -0,6 4,6 4,5 3,9 6,1 36 19 54 29 WZW 1008,2 29 26 0,0
17.01.2018 13:00:00 4,4 -1,7 4,1 3,7 3,8 6,1 33 18 52 28 W 1007,9 51 15 0,0
17.01.2018 12:00:00 2,5 0,1 2,3 2,8 3,7 6,0 24 13 42 23 ZW 1007,5 36 3 0,0
17.01.2018 11:00:00 2,1 0,1 1,9 2,4 3,8 6,0 29 16 46 25 WZW 1006,4 70 0 0,2
17.01.2018 10:00:00 1,5 -0,1 1,0 2,3 3,9 6,1 29 15 53 29 WZW 1005,1 9 0 0,1
17.01.2018 09:00:00 3,5 -0,8 2,4 2,4 4,0 6,0 29 16 49 26 WZW 1003,5 55 0 0,0
17.01.2018 08:00:00 3,1 0,6 2,1 2,8 4,1 6,0 33 18 57 31 WZW 1002,2 51 0 0,0
17.01.2018 07:00:00 3,9 0,2 3,4 2,8 4,3 6,0 28 15 51 27 ZW 1000,8 70 0 0,0
17.01.2018 06:00:00 4,1 0,1 3,6 3,1 4,3 6,0 28 15 46 25 WZW 999,9 70 0 0,0
17.01.2018 05:00:00 4,8 0,6 4,1 3,6 4,4 6,0 38 21 60 32 W 998,9 70 0 0,0
17.01.2018 04:00:00 5,1 2,5 3,8 3,6 4,4 6,0 31 17 50 27 WZW 998,1 68 0 0,2
17.01.2018 03:00:00 4,6 2,5 3,7 3,5 4,5 6,0 24 13 39 21 ZW 998,2 70 0 0,0
17.01.2018 02:00:00 4,6 2,4 4,0 3,5 4,5 6,0 27 15 45 25 WZW 998,4 70 0 0,0
17.01.2018 01:00:00 4,8 2,1 4,0 3,7 4,6 6,0 29 16 48 26 ZW 998,6 70 0 0,1
17.01.2018 00:00:00 4,9 2,0 4,1 3,7 4,7 6,0 29 15 42 23 ZW 999,3 70 0 0,0
16.01.2018 23:00:00 4,4 3,0 3,6 3,7 4,8 6,0 20 11 29 16 ZW 999,9 58 0 0,0
16.01.2018 22:00:00 4,0 2,6 3,5 3,9 4,9 6,0 21 11 31 17 ZW 1000,6 70 0 0,0
16.01.2018 21:00:00 4,3 2,3 3,4 4,1 5,0 6,0 21 11 26 14 ZW 1000,6 68 0 0,2
16.01.2018 20:00:00 4,3 2,9 3,6 4,3 5,1 6,0 14 8 35 19 W 1001,2 22 0 0,7
16.01.2018 19:00:00 4,9 3,3 4,0 4,6 5,2 6,0 20 11 49 26 WZW 1000,8 7 0 1,0
16.01.2018 18:00:00 6,2 2,6 5,4 4,6 5,4 6,0 21 11 46 25 ZW 1000,4 70 0 0,0
16.01.2018 17:00:00 6,6 2,3 5,8 5,0 5,5 6,0 29 16 55 30 WZW 1000,2 35 12 0,0
16.01.2018 16:00:00 6,9 1,9 6,3 5,5 5,6 6,0 37 20 61 33 WZW 1000,4 35 2 0,0
16.01.2018 15:00:00 7,9 1,4 7,3 6,2 5,6 6,0 34 18 59 32 WZW 999,5 45 9 0,0
16.01.2018 14:00:00 7,6 3,2 7,3 6,4 5,5 6,0 33 18 46 25 ZW 998,8 40 1 0,0
16.01.2018 13:00:00 7,4 4,7 6,6 6,5 5,4 6,0 28 15 68 37 W 999,1 16 0 1,3
16.01.2018 12:00:00 9,0 4,7 8,6 6,6 5,2 6,0 40 21 68 37 WZW 998,1 40 0 0,0
16.01.2018 11:00:00 8,5 5,3 7,7 6,3 5,1 6,0 30 16 50 27 WZW 998,8 35 0 0,0
16.01.2018 10:00:00 7,4 6,1 6,7 5,9 5,1 6,0 26 14 62 33 WZW 999,3 18 0 0,6
16.01.2018 09:00:00 8,3 5,0 6,7 5,8 5,1 6,0 34 18 49 27 WZW 998,5 14 0 0,0
16.01.2018 08:00:00 8,0 5,6 6,9 5,7 5,1 6,0 34 18 59 32 ZW 998,1 30 0 0,9
16.01.2018 07:00:00 7,4 6,0 6,4 5,6 4,8 6,1 34 19 55 30 WZW 997,8 9 0 1,9
16.01.2018 06:00:00 7,4 5,5 6,2 5,4 4,6 6,1 27 15 43 23 ZW 998,6 12 0 1,1
16.01.2018 05:00:00 7,5 5,1 6,1 5,3 4,5 6,1 31 17 46 25 ZW 999,7 16 0 1,4
16.01.2018 04:00:00 7,1 5,0 6,0 5,1 4,3 6,2 27 14 47 26 ZZW 1000,3 9 0 0,1
16.01.2018 03:00:00 7,2 4,9 6,1 5,0 4,2 6,2 32 17 52 28 ZW 1001,2 70 0 0,4
16.01.2018 02:00:00 7,2 4,7 6,0 4,9 4,0 6,2 31 17 60 32 ZW 1001,4 59 0 0,0
16.01.2018 01:00:00 7,6 4,1 6,1 4,8 3,9 6,3 45 24 60 32 ZW 1001,4 31 0 0,1
16.01.2018 00:00:00 7,0 4,1 5,7 4,7 3,8 6,3 37 20 66 35 ZW 1001,9 36 0 1,2
15.01.2018 23:00:00 7,2 4,0 5,5 4,5 3,5 6,3 46 25 71 38 ZW 1002,4 6 0 0,8
15.01.2018 22:00:00 7,0 3,9 5,4 4,3 3,3 6,3 45 24 63 34 ZW 1002,6 12 0 1,7
15.01.2018 21:00:00 6,4 4,4 5,1 4,0 3,1 6,3 28 15 43 23 ZZW 1003,8 8 0 1,6
15.01.2018 20:00:00 6,4 4,1 5,0 3,8 2,8 6,4 28 15 44 24 ZW 1005,6 8 0 1,2
15.01.2018 19:00:00 7,7 2,5 5,3 3,5 2,6 6,3 28 15 47 26 ZW 1006,3 10 0 0,0
15.01.2018 18:00:00 8,0 1,9 6,6 3,0 2,3 6,4 27 15 43 23 ZZW 1007,6 42 0 0,0
15.01.2018 17:00:00 7,9 1,9 6,7 2,0 2,1 6,4 18 10 41 22 ZW 1008,9 25 0 0,0
15.01.2018 16:00:00 3,9 0,5 3,6 1,8 1,9 6,4 6 3 13 7 ZO 1010,2 25 0 0,0
15.01.2018 15:00:00 3,2 -0,1 3,5 0,6 1,8 6,4 3 1 11 6 NW 1012,7 15 0 0,0
15.01.2018 14:00:00 2,5 -0,3 2,5 0,0 1,8 6,5 8 4 11 6 Z 1014,3 15 0 0,0
15.01.2018 13:00:00 1,9 -0,9 2,0 0,0 1,8 6,5 7 4 12 6 ZW 1015,9 15 0 0,0
15.01.2018 12:00:00 1,0 -0,8 0,8 0,0 1,9 6,5 8 4 9 5 Z 1017,4 15 0 0,0
15.01.2018 11:00:00 0,7 -1,4 0,0 0,0 1,9 6,5 5 3 7 4 Z 1018,5 15 0 0,0
15.01.2018 10:00:00 0,0 -1,5 -0,4 -0,1 1,9 6,5 6 4 8 5 ZO 1019,1 12 17 0,0
15.01.2018 09:00:00 -1,1 -2,1 -1,1 -0,1 2,0 6,5 6 3 8 4 ZZO 1019,8 12 0 0,0
15.01.2018 08:00:00 -1,6 -2,4 -1,7 -0,1 2,0 6,5 4 2 6 3 Z 1020,0 9 0 0,0
15.01.2018 07:00:00 -2,6 -3,2 -5,1 -0,1 2,1 6,6 4 2 6 3 WZW 1020,6 9 0 0,0
15.01.2018 06:00:00 -1,9 -2,9 -4,1 0,0 2,2 6,6 4 2 6 3 NNO 1020,6 10 0 0,0
15.01.2018 05:00:00 -1,5 -2,4 -1,7 0,0 2,2 6,6 3 2 6 4 Z 1021,3 9 0 0,0
15.01.2018 04:00:00 -2,4 -3,1 -3,0 0,0 2,3 6,6 5 3 6 4 NNW 1021,9 10 0 0,0
15.01.2018 03:00:00 -3,1 -3,8 -4,6 0,0 2,4 6,6 5 3 6 4 ZZO 1022,2 9 0 0,0
15.01.2018 02:00:00 -3,0 -3,8 -4,5 0,1 2,5 6,6 5 3 6 3 ZO 1022,5 8 0 0,0
15.01.2018 01:00:00 -2,8 -3,6 -4,6 0,2 2,6 6,7 3 2 5 3 OZO 1022,8 7 0 0,0
15.01.2018 00:00:00 -2,6 -3,3 -4,6 0,3 2,8 6,7 3 1 6 4 ZO 1022,9 7 0 0,0
14.01.2018 23:00:00 -2,0 -2,8 -3,8 0,4 2,9 6,7 3 2 4 2 Z 1023,1 8 0 0,0
14.01.2018 22:00:00 -1,7 -2,8 -4,3 0,4 3,1 6,7 3 2 5 3 ZO 1022,9 8 0 0,0
14.01.2018 21:00:00 -0,8 -2,3 -2,9 0,5 3,3 6,7 3 2 8 5 ZZO 1022,8 12 0 0,0
14.01.2018 20:00:00 0,7 -1,8 -3,2 0,5 3,6 6,7 4 2 9 5 O 1022,6 16 0 0,0
14.01.2018 19:00:00 1,8 -1,8 -1,0 1,2 3,9 6,7 9 5 13 7 O 1022,2 19 0 0,0
14.01.2018 18:00:00 2,5 -1,4 0,6 2,0 4,1 6,8 10 5 18 10 O 1022,3 20 0 0,0
14.01.2018 17:00:00 3,6 -0,9 1,9 3,2 4,2 6,8 15 8 20 11 ONO 1022,0 20 29 0,0
14.01.2018 16:00:00 4,3 -0,7 3,5 4,5 4,1 6,8 15 8 24 13 ONO 1021,8 20 47 0,0
14.01.2018 15:00:00 5,0 -0,7 5,6 5,4 3,8 6,8 18 10 28 15 ONO 1021,5 20 60 0,0
14.01.2018 14:00:00 5,2 -0,5 6,4 5,5 3,4 6,8 18 10 27 15 ONO 1021,4 15 60 0,0
14.01.2018 13:00:00 5,2 -0,3 6,7 4,8 3,0 6,8 21 11 30 16 ONO 1021,7 17 60 0,0
14.01.2018 12:00:00 4,7 -0,5 5,9 3,3 2,6 6,9 18 10 33 18 ONO 1022,2 14 60 0,0
14.01.2018 11:00:00 3,9 -0,6 4,6 1,2 2,6 6,9 19 11 32 17 ONO 1022,6 12 60 0,0
14.01.2018 10:00:00 2,7 -0,9 2,7 0,3 2,6 6,9 16 9 24 13 ONO 1022,5 11 47 0,0
14.01.2018 09:00:00 1,4 -1,3 0,2 0,3 2,7 6,9 13 7 22 12 ONO 1022,3 9 0 0,0
14.01.2018 08:00:00 1,3 -1,3 -0,5 0,3 2,8 6,9 14 8 19 11 ONO 1022,2 9 0 0,0
14.01.2018 07:00:00 1,2 -1,3 -0,8 0,4 2,9 6,9 12 7 21 11 ONO 1021,9 9 0 0,0
14.01.2018 06:00:00 1,7 -1,1 0,0 0,4 3,0 6,9 15 8 23 12 ONO 1021,6 12 0 0,0
14.01.2018 05:00:00 2,2 -1,1 0,5 0,2 3,2 6,9 14 7 23 12 ONO 1021,6 13 0 0,0
14.01.2018 04:00:00 2,3 -0,9 0,5 0,4 3,3 6,9 15 8 22 12 ONO 1021,5 12 0 0,0
14.01.2018 03:00:00 2,2 -0,9 0,2 0,6 3,5 6,9 14 7 19 11 ONO 1021,6 14 0 0,0
14.01.2018 02:00:00 2,9 -0,7 1,2 0,9 3,7 6,9 14 7 24 13 ONO 1021,4 13 0 0,0
14.01.2018 01:00:00 3,5 -0,5 1,7 1,1 4,0 6,9 14 8 21 11 ONO 1021,5 14 0 0,0
14.01.2018 00:00:00 3,2 -0,5 0,7 1,3 4,2 6,9 13 7 22 12 ONO 1021,7 14 0 0,0
13.01.2018 23:00:00 3,4 -0,3 1,0 1,8 4,5 6,9 11 6 18 10 ONO 1022,0 14 0 0,0
13.01.2018 22:00:00 3,9 0,3 1,7 2,3 4,7 6,9 13 7 18 10 ONO 1022,0 12 0 0,0
13.01.2018 21:00:00 4,6 0,8 2,7 3,0 4,9 7,0 13 7 18 10 ONO 1022,1 13 0 0,0
13.01.2018 20:00:00 5,5 0,6 4,4 3,9 4,9 7,0 11 6 24 13 ONO 1022,5 16 0 0,0
13.01.2018 19:00:00 6,0 0,2 5,2 4,0 5,0 7,0 11 6 22 12 O 1022,6 18 0 0,0
13.01.2018 18:00:00 6,1 0,1 5,4 4,2 5,0 7,0 16 8 27 15 O 1022,8 19 0 0,0

tt = temperatuur
td = dauwpunt
tt 5cm = temperatuur 5cm
tt -5cm = temperatuur -5cm
tt -20cm = temperatuur -20cm
tt -100cm = temperatuur -100cm
ff = windsnelheid
fx = windstoten
dd = windrichting
ppp = luchtdruk
vv = zicht
sd = Zonneschijnduur
rr = neerslag

Weerstations in de omgeving